When you browse on this site, cookies collect data to enhance your experience and personalize the content and advertising you see.
Visit our Privacy Policy to learn more. By continuing to use the site, you agree to this use of cookies and data.
  • In Hungary
  • List of Countries
  • For 7 days
  • Water Temperature
  • Satellite Maps
  • Weather Map
  • News
  • Weather Widgets
  • user-avatar
    Login

    Hourly Weather Chittaranjan

    Today, 16 January, Wednesday

    Time Temperature Precipitation Wind Pressure Humidity
    00:00 +16°C° 0 mm 2 mps 748 mmHg 43%
    01:00 +15°C° 0 mm 2 mps 748 mmHg 44%
    02:00 +15°C° 0 mm 2 mps 747 mmHg 45%
    03:00 +14°C° 0 mm 2 mps 747 mmHg 46%
    04:00 +14°C° 0 mm 2 mps 747 mmHg 46%
    05:00 +14°C° 0 mm 2 mps 747 mmHg 47%
    06:00 +13°C° 0 mm 1 mps 747 mmHg 47%
    07:00 +15°C° 0 mm 1 mps 747 mmHg 44%
    08:00 +16°C° 0 mm 1 mps 748 mmHg 41%
    09:00 +17°C° 0 mm 2 mps 748 mmHg 38%
    10:00 +19°C° 0 mm 2 mps 748 mmHg 34%
    11:00 +20°C° 0 mm 2 mps 748 mmHg 30%
    12:00 +23°C° 0 mm 2 mps 748 mmHg 26%
    13:00 +24°C° 0 mm 2 mps 747 mmHg 24%
    14:00 +25°C° 0 mm 2 mps 746 mmHg 22%
    15:00 +25°C° 0 mm 2 mps 746 mmHg 20%
    16:00 +24°C° 0 mm 2 mps 746 mmHg 22%
    17:00 +23°C° 0 mm 2 mps 746 mmHg 23%
    18:00 +22°C° 0 mm 1 mps 745 mmHg 25%
    19:00 +21°C° 0 mm 2 mps 746 mmHg 27%
    20:00 +20°C° 0 mm 2 mps 746 mmHg 28%
    21:00 +19°C° 0 mm 2 mps 746 mmHg 30%
    22:00 +18°C° 0 mm 2 mps 747 mmHg 32%
    23:00 +18°C° 0 mm 2 mps 747 mmHg 33%

    Tomorrow, 17 January, Thursday

    Time Temperature Precipitation Wind Pressure Humidity
    00:00 +17°C° 0 mm 2 mps 747 mmHg 35%
    01:00 +17°C° 0 mm 2 mps 746 mmHg 37%
    02:00 +16°C° 0 mm 2 mps 746 mmHg 39%
    03:00 +16°C° 0 mm 1 mps 746 mmHg 41%
    04:00 +16°C° 0 mm 1 mps 746 mmHg 42%
    05:00 +15°C° 0 mm 1 mps 745 mmHg 43%
    06:00 +15°C° 0 mm 1 mps 745 mmHg 45%
    07:00 +16°C° 0 mm 1 mps 746 mmHg 42%
    08:00 +17°C° 0 mm 2 mps 746 mmHg 40%
    09:00 +19°C° 0 mm 2 mps 747 mmHg 38%
    10:00 +20°C° 0 mm 2 mps 747 mmHg 33%
    11:00 +23°C° 0 mm 2 mps 747 mmHg 29%
    12:00 +25°C° 0 mm 2 mps 747 mmHg 25%
    13:00 +26°C° 0 mm 2 mps 746 mmHg 23%
    14:00 +26°C° 0 mm 2 mps 745 mmHg 21%
    15:00 +27°C° 0 mm 2 mps 744 mmHg 19%
    16:00 +26°C° 0 mm 2 mps 744 mmHg 21%
    17:00 +25°C° 0 mm 2 mps 744 mmHg 22%
    18:00 +24°C° 0 mm 2 mps 744 mmHg 24%
    19:00 +23°C° 0 mm 2 mps 745 mmHg 27%
    20:00 +21°C° 0 mm 2 mps 745 mmHg 29%
    21:00 +20°C° 0 mm 2 mps 746 mmHg 32%
    22:00 +20°C° 0 mm 2 mps 746 mmHg 36%
    23:00 +19°C° 0 mm 2 mps 746 mmHg 39%

    Day after tomorrow, 18 January, Friday

    Time Temperature Precipitation Wind Pressure Humidity
    00:00 +18°C° 0 mm 2 mps 746 mmHg 43%
    01:00 +18°C° 0 mm 2 mps 746 mmHg 45%
    02:00 +17°C° 0 mm 2 mps 745 mmHg 47%
    03:00 +17°C° 0 mm 2 mps 745 mmHg 49%
    04:00 +17°C° 0 mm 2 mps 746 mmHg 49%
    05:00 +16°C° 0 mm 2 mps 746 mmHg 50%
    06:00 +16°C° 0 mm 2 mps 746 mmHg 51%
    07:00 +17°C° 0 mm 2 mps 746 mmHg 47%
    08:00 +18°C° 0 mm 2 mps 747 mmHg 44%
    09:00 +20°C° 0 mm 2 mps 748 mmHg 40%
    10:00 +21°C° 0 mm 2 mps 748 mmHg 36%
    11:00 +24°C° 0 mm 2 mps 747 mmHg 31%
    12:00 +26°C° 0 mm 2 mps 747 mmHg 27%
    13:00 +27°C° 0 mm 2 mps 746 mmHg 25%
    14:00 +27°C° 0 mm 2 mps 746 mmHg 23%
    15:00 +28°C° 0 mm 3 mps 745 mmHg 21%
    16:00 +27°C° 0 mm 2 mps 745 mmHg 23%
    17:00 +26°C° 0 mm 2 mps 745 mmHg 26%
    18:00 +24°C° 0 mm 2 mps 745 mmHg 29%
    19:00 +24°C° 0 mm 2 mps 745 mmHg 33%
    20:00 +23°C° 0 mm 2 mps 746 mmHg 36%
    21:00 +21°C° 0 mm 2 mps 746 mmHg 40%
    22:00 +20°C° 0 mm 2 mps 746 mmHg 43%
    23:00 +19°C° 0 mm 2 mps 746 mmHg 47%

    19 January, Saturday

    Time Temperature Precipitation Wind Pressure Humidity
    00:00 +19°C° 0 mm 2 mps 746 mmHg 50%
    01:00 +18°C° 0 mm 2 mps 746 mmHg 53%
    02:00 +18°C° 0 mm 2 mps 746 mmHg 55%
    03:00 +17°C° 0 mm 2 mps 746 mmHg 57%
    04:00 +17°C° 0 mm 2 mps 746 mmHg 58%
    05:00 +16°C° 0 mm 2 mps 746 mmHg 59%
    06:00 +16°C° 0 mm 2 mps 746 mmHg 60%
    07:00 +17°C° 0 mm 2 mps 747 mmHg 56%
    08:00 +19°C° 0 mm 2 mps 748 mmHg 52%
    09:00 +20°C° 0 mm 2 mps 748 mmHg 48%
    10:00 +21°C° 0 mm 2 mps 748 mmHg 43%
    11:00 +24°C° 0 mm 1 mps 748 mmHg 37%
    12:00 +26°C° 0 mm 1 mps 748 mmHg 32%
    13:00 +26°C° 0 mm 2 mps 747 mmHg 29%
    14:00 +27°C° 0 mm 2 mps 746 mmHg 26%
    15:00 +28°C° 0 mm 2 mps 745 mmHg 24%
    16:00 +27°C° 0 mm 2 mps 745 mmHg 25%
    17:00 +26°C° 0 mm 2 mps 745 mmHg 27%
    18:00 +25°C° 0 mm 1 mps 746 mmHg 28%
    19:00 +24°C° 0 mm 2 mps 746 mmHg 30%
    20:00 +23°C° 0 mm 2 mps 747 mmHg 33%
    21:00 +21°C° 0 mm 2 mps 747 mmHg 35%
    22:00 +21°C° 0 mm 2 mps 747 mmHg 39%
    23:00 +20°C° 0 mm 2 mps 747 mmHg 42%

    20 January, Sunday

    Time Temperature Precipitation Wind Pressure Humidity
    00:00 +19°C° 0 mm 2 mps 747 mmHg 46%
    01:00 +19°C° 0 mm 2 mps 746 mmHg 49%
    02:00 +18°C° 0 mm 2 mps 746 mmHg 52%
    03:00 +18°C° 0 mm 2 mps 746 mmHg 55%
    04:00 +17°C° 0 mm 2 mps 746 mmHg 56%
    05:00 +18°C° 0 mm 1 mps 746 mmHg 58%
    06:00 +18°C° 0 mm 1 mps 746 mmHg 59%
    07:00 +19°C° 0 mm 1 mps 747 mmHg 55%
    08:00 +20°C° 0 mm 1 mps 748 mmHg 50%
    09:00 +21°C° 0 mm 1 mps 748 mmHg 46%
    10:00 +23°C° 0 mm 1 mps 748 mmHg 40%
    11:00 +25°C° 0 mm 2 mps 748 mmHg 35%
    12:00 +26°C° 0 mm 2 mps 747 mmHg 29%
    13:00 +27°C° 0 mm 2 mps 747 mmHg 26%
    14:00 +28°C° 0 mm 3 mps 746 mmHg 24%
    15:00 +29°C° 0 mm 3 mps 745 mmHg 21%
    16:00 +28°C° 0 mm 2 mps 745 mmHg 23%
    17:00 +27°C° 0 mm 2 mps 745 mmHg 25%
    18:00 +26°C° 0 mm 2 mps 745 mmHg 27%
    19:00 +25°C° 0 mm 2 mps 746 mmHg 29%
    20:00 +24°C° 0 mm 2 mps 746 mmHg 32%
    21:00 +23°C° 0 mm 2 mps 747 mmHg 34%
    22:00 +21°C° 0 mm 2 mps 747 mmHg 37%
    23:00 +20°C° 0 mm 2 mps 747 mmHg 40%

    21 January, Monday

    Time Temperature Precipitation Wind Pressure Humidity
    00:00 +20°C° 0 mm 1 mps 746 mmHg 44%
    01:00 +20°C° 0 mm 1 mps 746 mmHg 46%
    02:00 +19°C° 0 mm 1 mps 746 mmHg 48%
    03:00 +19°C° 0 mm 1 mps 746 mmHg 51%
    04:00 +18°C° 0 mm 1 mps 746 mmHg 52%
    05:00 +18°C° 0 mm 1 mps 746 mmHg 53%
    06:00 +16°C° 0 mm 0 mps 746 mmHg 55%
    07:00 +19°C° 0 mm 1 mps 747 mmHg 51%
    08:00 +21°C° 0 mm 1 mps 747 mmHg 47%
    09:00 +22°C° 0 mm 1 mps 748 mmHg 43%
    10:00 +24°C° 0 mm 1 mps 748 mmHg 38%
    11:00 +26°C° 0 mm 1 mps 747 mmHg 33%
    12:00 +28°C° 0 mm 1 mps 747 mmHg 28%
    13:00 +28°C° 0 mm 1 mps 746 mmHg 25%
    14:00 +29°C° 0 mm 2 mps 746 mmHg 22%
    15:00 +30°C° 0 mm 2 mps 745 mmHg 20%
    16:00 +29°C° 0 mm 2 mps 745 mmHg 21%
    17:00 +28°C° 0 mm 1 mps 745 mmHg 23%
    18:00 +26°C° 0 mm 1 mps 745 mmHg 24%
    19:00 +26°C° 0 mm 1 mps 745 mmHg 26%
    20:00 +25°C° 0 mm 1 mps 746 mmHg 28%
    21:00 +24°C° 0 mm 1 mps 746 mmHg 30%
    22:00 +23°C° 0 mm 1 mps 746 mmHg 32%
    23:00 +22°C° 0 mm 1 mps 746 mmHg 35%
    Show more